Location: Asheville, NC
(35.6000°N, 82.5500°W)
Time: 05:17:40
(UTC-05:00)

UWE-3 - Pass Details

Date: 14 February 2018
Orbit: 586 x 684 km, 97.6° (Epoch: 17 February)

Event Time Altitude Azimuth Distance (km) Brightness Sun altitude
Rises 20:09:51 0° 196° (SSW) 3,020 ? -24.7°
Reaches altitude 10° 20:12:26 10° 210° (SSW) 2,115 ? -25.2°
Maximum altitude 20:16:14 25° 265° (W) 1,372 ? -26.0°
Drops below altitude 10° 20:20:03 10° 320° (NW) 2,126 ? -26.7°
Sets 20:22:40 0° 334° (NNW) 3,039 ? -27.3°
